Regional Weather Roundup
Issued by NWS

Home | Current Version | Previous Version | Text Only | Print | Product List | Glossary Off
Versions: 1 2 3 4 5 6 7 8 9 10 11 12 13 14 15 16 17 18 19 20 21 22 23 24 25 26 27 28 29 30 31 32 33 34 35 36 37 38 39 40 41 42 43 44 45 46 47 48 49 50

000
ASUS45 KBOU 220707
RWRCO

WEATHER ROUNDUP FOR COLORADO
NATIONAL WEATHER SERVICE DENVER/BOULDER CO
100 AM MDT FRI MAY 22 2015

NOTE: "FAIR" INDICATES FEW OR NO CLOUDS BELOW 12000 FEET WITH NO
SIGNIFICANT WEATHER AND/OR OBSTRUCTIONS TO VISIBILITY.

COZ001>005-013-030-031-220800-
...NORTHWEST COLORADO...

CITY           SKY/WX    TMP DP  RH WIND       PRES   REMARKS
CRAIG          LGT RAIN  51  39  63 S12G21    29.99R
HAYDEN         CLOUDY    48  37  66 S6        30.02R
MEEKER         CLOUDY    49  41  74 CALM      29.98F
MOUNT WERNER   NOT AVBL
STEAMBOAT SPGS CLOUDY    47  38  69 S5        30.02S
WALDEN         CLOUDY    41  34  75 CALM      30.07F
$$

COZ006>008-011-220800-
...WEST CENTRAL VALLEYS...

CITY           SKY/WX    TMP DP  RH WIND       PRES   REMARKS
GRAND JUNCTION CLOUDY    54  43  66 S12       29.92S
MONTROSE       CLOUDY    53  43  68 SE9       30.02R
EAGLE          CLOUDY    46  45  93 NE5       30.05S
RIFLE          CLOUDY    54  44  69 W5        29.97R
DELTA          CLOUDY    53  47  79 SW17G30   30.01R
NUCLA          LGT RAIN  46  43  87 W6        30.08R
$$

COZ017>023-064>068-220800-
...SOUTHWEST COLORADO...

CITY           SKY/WX    TMP DP  RH WIND       PRES   REMARKS
DURANGO        CLOUDY    43  41  93 E5        30.08F
CORTEZ         CLEAR     49  41  74 NW7       30.01S
PAGOSA SPRINGS LGT RAIN  39  38  97 E7        30.16R
TELLURIDE      NOT AVBL
WOLF CREEK PAS NOT AVBL
$$

COZ009-010-012-014-032>034-037-058>063-220800-
...CENTRAL COLORADO...

CITY           SKY/WX    TMP DP  RH WIND       PRES   REMARKS
ASPEN          LGT RAIN  44  41  89 CALM      30.05F
BUENA VISTA    RAIN      40  37  90 CALM      30.12F
COPPER MTN     CLOUDY    36  28  75 SE13      30.20F
BERTHOUD PASS  HAZE      27  19  74 E31G37    30.22F VSB<1/4 WCI  10
COTTONWOOD PAS LGT SNOW  36  34  93 E5        30.16F
GUNNISON       CLOUDY    48  34  57 E14G21    30.06F
KREMMLING      CLOUDY    45  39  81 SW3       30.06F
LEADVILLE      FOG       33  33 100 S6        30.13F VSB 1/4 WCI  28
SALIDA         CLOUDY    43  41  93 E3        30.17F
SUNLIGHT       CLOUDY    36  34  93 NE5       30.17F THUNDER
WILKERSON PASS SNOW      32  30  93 S9        30.22F VSB 1/2 WCI  24
$$

COZ069>075-220800-
...SAN LUIS VALLEY/SANGRE DE CRISTO MOUNTAINS...

CITY           SKY/WX    TMP DP  RH WIND       PRES   REMARKS
ALAMOSA        LGT RAIN  45  39  79 S10       30.09S
LA VETA PASS   CLOUDY   N/A N/A N/A MISG      30.16S
SAGUACHE       DRIZZLE   43  41  93 CALM      30.10F
$$

COZ035-036-038>040-220800-
...NORTHERN COLORADO FRONT RANGE...

CITY           SKY/WX    TMP DP  RH WIND       PRES   REMARKS
DENVER INTL AP LGT RAIN  48  44  86 SE20      30.08S
DMNS CITY PARK   N/A     50  44  80 SE6G12    30.06F
AURORA         LGT RAIN  47  46  98 SE12      30.09F
FRONT RANGE AP CLOUDY    48  45  87 SE14G22   30.10S
ERIE MUNI ARPT CLOUDY    50  46  87 SE5       30.06F
BOULDER MUN AP DRIZZLE   48  46  93 N3        30.06F
CENTENNIAL     LGT RAIN  47  44  90 SE13      30.08F
BROOMFIELD     CLOUDY    48  45  87 CALM      30.07F
FORT COLLINS   CLOUDY    48  45  87 S12       30.08S
LONGMONT       CLOUDY    53  46  79 CALM      30.08F
$$

COZ041-046-047-076>085-087-088-220800-
...PIKES PEAK/PALMER DIVIDE AND SOUTHERN FOOTHILLS...

CITY           SKY/WX    TMP DP  RH WIND       PRES   REMARKS
COLO. SPRINGS  LGT RAIN  44  43  96 SE6       30.11F FOG
A. F. ACADEMY  CLOUDY    43  43 100 SE9       30.09F
ELLICOTT       NOT AVBL
FALCON         LGT RAIN  41  41 100 SE17      30.11F VSB 3/4
FORT CARSON    RAIN      45 N/A N/A NE2       30.08F
LIMON          CLOUDY    44  43  96 SE17      30.12F
MONUMENT HILL  NOT AVBL
TRINIDAD       CLOUDY    46  43  89 N5        30.05F
$$

COZ042>045-048>051-090-091-220800-
...NORTHEAST COLORADO...

CITY           SKY/WX    TMP DP  RH WIND       PRES   REMARKS
GREELEY ARPT   CLOUDY    50  45  81 SE12      30.08F
AKRON          CLOUDY    46  45  96 SE17      30.13F
BURLINGTON     CLOUDY    49  43  80 SE13      30.16F
WRAY           CLOUDY    51  45  80 SE10      30.17S
STERLING       CLOUDY    50  45  81 S15G23    30.11S
HOLYOKE        NOT AVBL
FORT MORGAN    CLOUDY    48  44  84 SE13G18   30.12S
$$

COZ086-089-092>099-220800-
...SOUTHEAST COLORADO...

CITY           SKY/WX    TMP DP  RH WIND       PRES   REMARKS
PUEBLO         LGT RAIN  48  48 100 E9        30.05F FOG
LA JUNTA       RAIN      49  47  93 SE14      30.09F FOG
LAMAR          RAIN      48  47  96 SE13      30.12F FOG
SPRINGFIELD      N/A     47  46  97 S13       30.16S
$$


USA.gov is the U.S. government's official web portal to all federal, state and local government web resources and services.